Location: Hawaiian Village Mobile Home Park
(32.8359°N, 116.9792°W)
Time: 03:19:07
(UTC+00:00)

ADEOS - Pass Details

Date: 08 December 2021
Orbit: 792 x 795 km, 98.9° (Epoch: 23 January)

Event Time Altitude Azimuth Distance (km) Brightness Sun altitude
Rises 02:00:17 0° 218° (SW) 3,281 7.7 -16.2°
Reaches altitude 10° 02:05:00 10° 257° (WSW) 2,360 7.4 -17.1°
Maximum altitude 02:05:57 10° 268° (W) 2,329 7.2 -17.3°
Drops below altitude 10° 02:06:54 10° 278° (W) 2,362 7.0 -17.5°
Sets 02:11:40 0° 318° (NW) 3,299 7.1 -18.5°
